COSMOS 1275 DEB, 12690

Orbit data source: Space-Track

COSMOS 1275 DEB, 12690 is space debris in LEO originally from a launch on Thu, 04 Jun 1981 UTC launched from the Plesetsk Missile And Space Complex (PKMTR). Debris objects in space refer to the collection of defunct objects orbiting the Earth. Examples of debris include non-operational satellites, rocket bodies, and fragments generated from explosions, collisions, or faulty payload assembly.

Loading next visibility...
Identifier
12690, 1981-053AJ
Orbit
LEO
Country
Flag of CISCIS
Related business
Manufacturer
Unknown
Mission
Spacecraft
Bus & Motor
Unknown
Mass
Unknown
Launch date (UTC)
1981-06-04 (44 years ago)
Launch vehicle
Unknown
Launch site
Plesetsk Missile And Space Complex (PKMTR)
Object type
Payload
Rocket body
Debris
Shape & HBR
Unknown shape, 0.3 m
Radar Cross Section
Medium (>0.1 m² and <1 m²)

Expand to show TLE details & history
Last TLE update: 21 hours ago

TLE from 21 hours ago
0 COSMOS 1275 DEB
1 12690U 81053AJ  25292.12355296  .00002096  00000-0  17623-2 0  9996
2 12690  82.9528 156.2542 0090967  75.3378  42.3430 13.85647083210737
Epoch: 2025-10-19T02:57Z
TLE epoch observation values (Epoch: 2025-10-19T02:57:54.975Z)
Latitude
60.91374°
Longitude
-108.84097°
Altitude
905.364 km
Speed
7.43 km/s
True Right ascension
21h 33m 55s
True Declination
60° 46' 13"
Sunlit
Object was in daylight at epoch
Visualization orbit readout
Latitude
Unknown
Longitude
Unknown
Altitude
Unknown
Speed
Unknown
Apparent Right ascension
Unknown
Apparent Declination
Unknown
Sunlit
N/A
Visualization observer readout
Local Sidereal Time
18:32:09
Azimuth
Unknown
Elevation
Unknown
Doppler factor
Unknown
Orbital elements
Apogee altitude
1,007.639 km
Perigee altitude
874.478 km
Semi-major axis
7,319.196 km
Eccentricity
0.0091
Inclination
82.9528°
RAAN
156.2542°
Arg. of periapsis
75.3378°
True anomaly
43.05106°
Mean anomaly
42.343°
Eccentric anomaly
42.69643°
Mean motion
3.46616 °/min
Orbital period
103.86 mins
BSTAR
0.0017623
Loading maneuver chart data...
Computing Atmospheric mass density...

Documentation

Showing up to 5 results
|